Globalstar M015

operational
NORAD ID: 25308 Int'l Des: 1998-023 Owner: GLOBT Country: US Constellation: globalstar
LEOCIRCULAR

关于 Globalstar M015

正在加载描述...

实时位置

正在加载3D地球...

即将过境

高度历史

Altitude vs Time

uPlot chart will show altitude changes over time

两行轨道根数

1 25308U 98023C 26063.11376870 -.00000075 00000-0 -28061-4 0 9995
2 25308 51.9842 38.8075 0012667 178.1283 263.9387 11.48860619223955
Epoch: Mar 4, 2026 • Age: 8 hours

当前状态

高度 1936.6 km
速度 6.93 km/s
星下点 -52.11°S, 25.66°E
发射日期 Apr 24, 1998
运行时间 27.8 years
类型 communications

技术详情

分类 Payload
质量 450.00 kg
干质量 380.00 kg
总质量 450.00 kg
长度 1.50 m
直径 0.60 m
跨度 12.00 m
形状 Box + 2 Pan
制造商 LOR
平台类型 LS-400
阶段状态 In Orbit
所有者/国家 GLOBT/US

大型星座

Loading constellations...